Location: *
(46.0770°N, 1.6444°E)
Time: 21:18:22
(UTC+00:00)

Cosmos 2315 Rocket - Pass Details

Date: 16 September 2019
Orbit: 966 x 1002 km, 82.9° (Epoch: 21 October)

Event Time Altitude Azimuth Distance (km) Brightness Sun altitude
Rises 18:29:39 0° 194° (SSW) 3,682 7.1 -5.3°
Reaches altitude 10° 18:32:11 10° 196° (SSW) 2,732 6.4 -5.7°
Maximum altitude 18:38:26 70° 280° (W) 1,036 4.4 -6.8°
Drops below altitude 10° 18:44:40 10° 5° (N) 2,727 6.5 -7.9°
Sets 18:47:12 0° 7° (N) 3,675 7.1 -8.3°
